CW6777 Weather Reports


time (UTC)temp
F
wind
direction
speed
knots
gust
knots
rain 1hr
in
rain 24hr
in
rain mn
in
humidity
%
barometer
mb
20260504045507 42 351 0.0 2.6 0.00 0.00 0.00 68 1010.8
20260504045012 42 331 0.9 2.6 0.00 0.00 0.00 65 1010.8
20260504044534 43 339 0.0 2.6 0.00 0.00 0.00 65 1010.8
20260504044008 43 331 0.9 2.6 0.00 0.00 0.00 65 1010.8
20260504043506 43 325 0.0 1.7 0.00 0.00 0.00 64 1010.7
20260504043020 44 325 0.9 3.5 0.00 0.00 0.00 63 1010.7
20260504042508 44 345 0.9 3.5 0.00 0.00 0.00 62 1010.8
20260504042009 44 300 0.9 4.3 0.00 0.00 0.00 62 1010.8
20260504041520 44 315 0.9 4.3 0.00 0.00 0.00 61 1010.8
20260504041009 44 348 0.0 3.5 0.00 0.00 0.00 61 1010.7
20260504040512 44 360 0.9 4.3 0.00 0.00 0.00 61 1010.8
20260504040020 44 345 0.9 4.3 0.00 0.00 0.00 62 1010.7
20260504035513 44 344 0.9 3.5 0.00 0.00 0.00 62 1010.7
20260504035007 43 350 0.9 4.3 0.00 0.00 0.00 63 1010.7
20260504034538 43 315 0.9 4.3 0.00 0.00 0.00 65 1010.6
20260504034011 43 5 1.7 4.3 0.00 0.00 0.00 65 1010.6
20260504033513 42 13 0.9 3.5 0.00 0.00 0.00 66 1010.6
20260504033029 42 340 1.7 3.5 0.00 0.00 0.00 68 1010.6
20260504032510 41 5 0.9 2.6 0.00 0.00 0.00 69 1010.6
20260504032010 41 336 0.9 2.6 0.00 0.00 0.00 72 1010.6
20260504031522 41 336 0.0 1.7 0.00 0.00 0.00 71 1010.5
20260504031007 41 329 0.0 1.7 0.00 0.00 0.00 70 1010.6
20260504030504 42 336 0.0 1.7 0.00 0.00 0.00 68 1010.5
20260504030003 42 336 0.0 0.9 0.00 0.00 0.00 67 1010.6
20260504025503 43 340 0.0 1.7 0.00 0.00 0.00 66 1010.6
20260504025003 43 337 0.0 1.7 0.00 0.00 0.00 66 1010.7
20260504024510 43 344 0.0 2.6 0.00 0.00 0.00 64 1010.7
20260504024002 44 336 0.0 3.5 0.00 0.00 0.00 64 1010.7
20260504023507 44 335 0.9 3.5 0.00 0.00 0.00 63 1010.7
20260504023009 44 331 0.0 3.5 0.00 0.00 0.00 64 1010.7
20260504022504 45 346 0.0 2.6 0.00 0.00 0.00 62 1010.7
20260504022004 45 11 0.9 3.5 0.00 0.00 0.00 60 1010.7
20260504021522 45 330 0.9 3.5 0.00 0.00 0.00 61 1010.7
20260504021004 45 355 0.9 3.5 0.00 0.00 0.00 61 1010.6
20260504020506 45 355 0.9 4.3 0.00 0.00 0.00 60 1010.7
20260504020013 45 333 0.9 4.3 0.00 0.00 0.00 60 1010.7
20260504015503 45 341 0.9 3.5 0.00 0.00 0.00 60 1010.7
20260504015003 45 350 0.9 3.5 0.00 0.00 0.00 61 1010.6
20260504014505 45 350 0.0 3.5 0.00 0.00 0.00 60 1010.6
20260504014003 46 355 0.0 1.7 0.00 0.00 0.00 60 1010.6
20260504013503 46 5 0.0 2.6 0.00 0.00 0.00 59 1010.6
20260504013010 46 355 0.0 2.6 0.00 0.00 0.00 59 1010.5
20260504012504 46 352 0.0 0.0 0.00 0.00 0.00 58 1010.5
20260504012008 46 338 0.0 2.6 0.00 0.00 0.00 57 1010.4
20260504011513 47 333 0.0 2.6 0.00 0.00 0.00 57 1010.4
20260504011008 47 355 0.9 3.5 0.00 0.00 0.00 57 1010.4
20260504010504 47 322 0.9 3.5 0.00 0.00 0.00 57 1010.4
20260504010009 47 17 0.9 3.5 0.00 0.00 0.00 57 1010.4
20260504005503 47 340 0.9 2.6 0.00 0.00 0.00 55 1010.4
20260504005003 47 329 0.0 2.6 0.00 0.00 0.00 57 1010.4
20260504004513 48 326 0.0 2.6 0.00 0.00 0.00 55 1010.3
20260504004005 49 336 0.0 2.6 0.00 0.00 0.00 53 1010.3
20260504003503 50 336 0.0 2.6 0.00 0.00 0.00 51 1010.2
20260504003007 50 336 0.9 3.5 0.00 0.00 0.00 48 1010.2
20260504002504 51 333 0.9 7.0 0.00 0.00 0.00 48 1010.1
20260504002004 51 321 0.9 7.0 0.00 0.00 0.00 48 1010.1
20260504001512 52 331 0.0 4.3 0.00 0.00 0.00 47 1010.1
20260504001005 53 355 0.9 7.0 0.00 0.00 0.00 44 1010.0
20260504000508 53 360 1.7 7.0 0.00 0.00 0.00 43 1009.9
20260504000008 53 334 1.7 6.1 0.00 0.00 0.00 42 1010.0
20260503235507 54 37 1.7 4.3 0.00 0.00 0.00 42 1009.9
20260503235004 54 315 0.9 8.7 0.00 0.00 0.00 43 1009.9
20260503234508 54 10 1.7 8.7 0.00 0.00 0.00 41 1009.9
20260503234006 54 5 3.5 8.7 0.00 0.00 0.00 41 1009.9
20260503233507 54 32 2.6 8.7 0.00 0.00 0.00 41 1010.0
20260503233007 55 5 0.9 8.7 0.00 0.00 0.00 42 1009.9
20260503232507 55 333 3.5 9.6 0.00 0.00 0.00 41 1009.9
20260503232004 55 33 1.7 9.6 0.00 0.00 0.00 40 1009.9
20260503231508 55 20 3.5 8.7 0.00 0.00 0.00 40 1009.8
20260503231005 55 32 0.9 8.7 0.00 0.00 0.00 40 1009.8
20260503230505 55 319 2.6 8.7 0.00 0.00 0.00 40 1009.9
20260503230011 55 360 4.3 13.0 0.00 0.00 0.00 40 1009.9
20260503225505 55 298 5.2 13.0 0.00 0.00 0.00 41 1009.9
20260503225006 56 321 1.7 12.2 0.00 0.00 0.00 41 1009.9
20260503224511 56 330 3.5 12.2 0.00 0.00 0.00 41 1009.9
20260503224009 55 78 2.6 9.6 0.00 0.00 0.00 40 1009.8
20260503223511 55 332 2.6 9.6 0.00 0.00 0.00 41 1009.9
20260503223010 55 42 4.3 8.7 0.00 0.00 0.00 40 1009.8
20260503222508 55 34 1.7 8.7 0.00 0.00 0.00 41 1009.8
20260503222010 56 319 4.3 8.7 0.00 0.00 0.00 39 1009.8
20260503221522 56 46 2.6 8.7 0.00 0.00 0.00 41 1009.9
20260503221005 56 30 0.9 8.7 0.00 0.00 0.00 41 1009.9
20260503220510 56 331 1.7 10.4 0.00 0.00 0.00 42 1010.0
20260503220012 56 24 4.3 10.4 0.00 0.00 0.00 39 1010.0
20260503215506 56 317 3.5 10.4 0.00 0.00 0.00 39 1010.0
20260503215008 57 172 3.5 10.4 0.00 0.00 0.00 39 1009.9
20260503214514 58 360 3.5 10.4 0.00 0.00 0.00 38 1009.9
20260503214015 57 77 1.7 13.0 0.00 0.00 0.00 41 1009.9
20260503213509 57 36 4.3 13.0 0.00 0.00 0.00 39 1009.9
20260503213027 57 339 2.6 10.4 0.00 0.00 0.00 39 1009.8
20260503212510 57 76 1.7 10.4 0.00 0.00 0.00 39 1009.8
20260503212010 58 314 3.5 9.6 0.00 0.00 0.00 38 1009.8
20260503211520 58 17 0.9 9.6 0.00 0.00 0.00 41 1009.8
20260503211011 57 15 2.6 11.3 0.00 0.00 0.00 42 1009.8
20260503210505 56 34 3.5 11.3 0.00 0.00 0.00 37 1009.8
20260503210014 56 14 2.6 12.2 0.00 0.00 0.00 40 1009.8
20260503205507 57 9 3.5 12.2 0.00 0.00 0.00 37 1009.8
20260503205015 57 47 5.2 12.2 0.00 0.00 0.00 37 1009.9
20260503204523 57 326 4.3 12.2 0.00 0.00 0.00 37 1009.9
20260503204008 58 10 3.5 13.0 0.00 0.00 0.00 37 1009.9
20260503203506 58 97 2.6 13.0 0.00 0.00 0.00 39 1009.9
20260503203020 57 304 5.2 10.4 0.00 0.00 0.00 37 1009.9
20260503202514 58 27 4.3 9.6 0.00 0.00 0.00 36 1010.1
20260503202012 59 132 3.5 13.0 0.00 0.00 0.00 38 1010.2
20260503201528 59 60 3.5 14.8 0.00 0.00 0.00 39 1010.2
20260503201011 58 5 4.3 14.8 0.00 0.00 0.00 40 1010.1
20260503200507 58 45 1.7 10.4 0.00 0.00 0.00 41 1010.2
20260503200022 58 346 3.5 10.4 0.00 0.00 0.00 41 1010.2
20260503195508 57 24 1.7 10.4 0.00 0.00 0.00 40 1010.2
20260503195012 57 82 3.5 13.9 0.00 0.00 0.00 38 1010.2
20260503194527 57 355 4.3 13.9 0.00 0.00 0.00 38 1010.3
20260503194010 58 40 3.5 13.0 0.00 0.00 0.00 38 1010.4
20260503193506 58 19 3.5 13.0 0.00 0.00 0.00 37 1010.5
20260503193014 58 344 2.6 13.0 0.00 0.00 0.00 41 1010.6
20260503192506 58 114 1.7 10.4 0.00 0.00 0.00 44 1010.6
20260503192015 58 89 4.3 13.0 0.00 0.00 0.00 42 1010.8
20260503191521 57 284 5.2 13.0 0.00 0.00 0.00 39 1010.9
20260503191010 56 58 3.5 10.4 0.00 0.00 0.00 41 1010.8
20260503190507 56 342 2.6 10.4 0.00 0.00 0.00 39 1010.9
20260503190021 57 14 3.5 16.5 0.00 0.00 0.00 39 1010.9
20260503185506 57 57 6.1 16.5 0.00 0.00 0.00 41 1011.0
20260503185006 57 38 7.8 16.5 0.00 0.00 0.00 39 1011.0
20260503184522 56 102 2.6 12.2 0.00 0.00 0.00 44 1011.1
20260503184007 56 16 4.3 12.2 0.00 0.00 0.00 38 1011.0
20260503183517 57 18 2.6 8.7 0.00 0.00 0.00 42 1011.1
20260503183030 57 111 2.6 8.7 0.00 0.00 0.00 42 1011.2
20260503182509 56 98 2.6 14.8 0.00 0.00 0.00 42 1011.2
20260503182011 55 12 6.1 14.8 0.00 0.00 0.00 39 1011.2
20260503181528 55 352 0.9 10.4 0.00 0.00 0.00 42 1011.2
20260503181004 55 175 2.6 10.4 0.00 0.00 0.00 41 1011.2
20260503180504 55 34 3.5 14.8 0.00 0.00 0.00 42 1011.2
20260503180004 55 348 5.2 14.8 0.00 0.00 0.00 40 1011.3
20260503175504 55 9 3.5 13.9 0.00 0.00 0.00 40 1011.3
20260503175007 55 324 3.5 13.9 0.00 0.00 0.00 44 1011.3
20260503174507 55 50 4.3 13.9 0.00 0.00 0.00 44 1011.5
20260503174002 55 326 4.3 13.0 0.00 0.00 0.00 43 1011.5
20260503173502 54 40 2.6 12.2 0.00 0.00 0.00 42 1011.5
20260503173024 54 18 4.3 12.2 0.00 0.00 0.00 39 1011.5
20260503172502 55 5 2.6 10.4 0.00 0.00 0.00 41 1011.5
20260503172003 55 179 1.7 13.0 0.00 0.00 0.00 43 1011.5
20260503171512 55 20 3.5 13.0 0.00 0.00 0.00 42 1011.5
20260503171006 54 345 3.5 13.0 0.00 0.00 0.00 47 1011.5
20260503170503 54 10 2.6 18.2 0.00 0.00 0.00 43 1011.6
20260503151006 50 67 5.2 13.9 0.00 0.00 0.00 49 1012.7
20260503150512 49 97 0.9 16.5 0.00 0.00 0.00 55 1012.7
20260503131007 45 49 3.5 9.6 0.00 0.00 0.00 59 1013.2
20260503130509 45 19 2.6 8.7 0.00 0.00 0.00 61 1013.2
20260503110513 34 35 0.0 7.0 0.00 0.00 0.00 76 1012.6
20260503090505 36 123 1.7 8.7 0.00 0.01 0.00 71 1011.6
20260503081513 36 13 0.9 7.0 0.00 0.01 0.00 72 1011.5
20260503081007 36 122 0.0 0.9 0.00 0.01 0.00 72 1011.5
20260503080505 36 117 0.0 2.6 0.00 0.01 0.00 72 1011.4
20260503072506 36 113 0.0 3.5 0.00 0.01 0.00 72 1011.3
20260503072006 36 61 0.0 2.6 0.00 0.01 0.00 72 1011.3
20260503071505 36 123 0.0 2.6 0.00 0.01 0.00 72 1011.3
20260503071004 36 70 0.0 1.7 0.00 0.01 0.00 72 1011.3
20260503070504 36 35 0.0 2.6 0.00 0.01 0.00 73 1011.2
20260503055003 37 132 0.0 2.6 0.00 0.01 0.00 69 1011.3
20260503054513 37 67 0.9 1.7 0.00 0.01 0.00 70 1011.3
20260503054008 37 77 0.0 1.7 0.00 0.01 0.00 71 1011.2
20260503053509 37 76 0.0 1.7 0.00 0.02 0.00 73 1011.3
20260503053012 37 46 0.0 1.7 0.00 0.02 0.00 72 1011.3
20260503052505 37 96 0.0 0.9 0.00 0.02 0.00 73 1011.4
20260503052010 37 121 0.0 7.8 0.00 0.03 0.00 73 1011.3
20260503051512 37 146 0.9 7.8 0.00 0.03 0.00 71 1011.4
20260503051010 37 56 0.0 1.7 0.00 0.03 0.00 75 1011.5
20260503050505 37 34 0.0 1.7 0.00 0.03 0.00 79 1011.5
20260503050008 37 61 0.0 0.0 0.00 0.03 0.00 78 1011.5